Simultaneous Nadir Overpasses (SNOs) Predictions

Prediction of SNOs between GOES-15 and METOP-A Satellite Orbit:

Table of predicted SNOs for the next 14.0 days since TLE Epoch: 6/29/2019
Index Date Time (GOES-15) GOES-15 Lat,Lon METOP-A Lat,Lon Distance(km) Time Diff (sec)
1 06/29/2019 05:29:36 0.16,-127.91 0.40,-126.69 138.27 80
2 06/30/2019 17:51:09 -0.14,-127.92 0.63,-131.28 383.77 80
3 07/01/2019 17:27:50 -0.16,-127.88 -0.51,-126.30 179.82 80
4 07/03/2019 05:49:31 0.14,-127.77 -0.57,-130.92 358.08 80
5 07/04/2019 05:26:12 0.16,-127.74 0.57,-125.94 204.79 80
6 07/05/2019 17:47:44 -0.14,-127.72 0.46,-130.53 318.62 80
7 07/06/2019 17:24:25 -0.16,-127.68 -0.62,-125.54 244.29 80
8 07/08/2019 05:46:05 0.14,-127.57 -0.46,-130.15 294.02 80
9 07/09/2019 05:22:47 0.16,-127.53 0.68,-125.17 268.57 80
10 07/10/2019 17:44:19 -0.13,-127.51 0.34,-129.76 255.31 80
11 07/11/2019 17:21:00 -0.15,-127.47 -0.74,-124.77 307.32 80




NCC Satellite Simultaneous Nadir Overpasses (SNOs) Prediction Service
